QPF
0.13 0.11 0.08 0.05 0.02 0.01 0.00 0.00 0.00 0.00 0.00 0.01 0.02 0.02 0.02 0.01 0.01 0.01 0.02 0.03 0.02 0.01 0.02 0.02 0.02 0.01 0.01 0.01 0.01 0.02 0.02 0.04 0.04 0.02 0.02 0.01 0.01 0.01 0.01 0.01 0.01 0.01 0.01
0.14 0.15 0.10 0.07 0.05 0.03 0.01 0.00 0.00 0.00 0.00 0.01 0.01 0.01 0.01 0.01 0.01 0.01 0.01 0.02 0.02 0.02 0.02 0.02 0.02 0.02 0.01 0.01 0.01 0.01 0.01 0.02 0.03 0.03 0.02 0.02 0.01 0.01 0.01 0.02 0.01 0.01 0.01
0.12 0.15 0.12 0.09 0.06 0.05 0.03 0.02 0.00 0.00 0.00 0.00 0.01 0.01 0.01 0.01 0.01 0.01 0.01 0.02 0.02 0.02 0.02 0.02 0.03 0.02 0.02 0.01 0.01 0.01 0.01 0.01 0.02 0.03 0.03 0.03 0.02 0.02 0.02 0.02 0.02 0.02 0.02
0.09 0.14 0.12 0.11 0.08 0.05 0.03 0.03 0.01 0.01 0.00 0.00 0.00 0.01 0.01 0.02 0.02 0.02 0.02 0.02 0.02 0.02 0.02 0.02 0.02 0.02 0.02 0.02 0.02 0.01 0.01 0.01 0.01 0.02 0.03 0.03 0.03 0.03 0.03 0.03 0.03 0.03 0.03
0.05 0.09 0.09 0.08 0.08 0.07 0.04 0.03 0.02 0.01 0.01 0.01 0.00 0.00 0.00 0.01 0.01 0.01 0.01 0.02 0.02 0.02 0.02 0.03 0.03 0.03 0.02 0.02 0.02 0.02 0.02 0.01 0.01 0.01 0.01 0.02 0.03 0.03 0.03 0.04 0.04 0.03 0.03
0.04 0.05 0.07 0.05 0.05 0.06 0.04 0.03 0.02 0.02 0.01 0.01 0.01 0.01 0.01 0.01 0.01 0.01 0.01 0.01 0.01 0.01 0.02 0.02 0.02 0.02 0.03 0.02 0.02 0.02 0.02 0.01 0.01 0.01 0.02 0.02 0.02 0.02 0.03 0.03 0.03 0.03 0.03
0.09 0.06 0.05 0.05 0.04 0.04 0.03 0.02 0.01 0.01 0.01 0.01 0.01 0.01 0.01 0.01 0.01 0.01 0.01 0.00 0.00 0.00 0.01 0.01 0.01 0.02 0.02 0.03 0.02 0.02 0.02 0.02 0.01 0.01 0.01 0.02 0.02 0.02 0.02 0.03 0.03 0.03 0.03
0.14 0.12 0.07 0.05 0.04 0.03 0.03 0.02 0.01 0.01 0.01 0.01 0.01 0.01 0.01 0.01 0.01 0.01 0.00 0.01 0.00 0.00 0.00 0.00 0.01 0.01 0.01 0.02 0.02 0.02 0.02 0.02 0.02 0.02 0.01 0.02 0.02 0.02 0.02 0.03 0.03 0.03 0.04
0.08 0.09 0.10 0.08 0.06 0.04 0.03 0.02 0.01 0.01 0.02 0.02 0.01 0.01 0.01 0.01 0.00 0.00 0.00 0.00 0.00 0.00 0.00 0.00 0.01 0.01 0.01 0.01 0.02 0.02 0.02 0.02 0.02 0.02 0.02 0.02 0.02 0.02 0.02 0.03 0.03 0.04 0.04
0.07 0.07 0.07 0.07 0.06 0.05 0.03 0.02 0.01 0.01 0.01 0.02 0.02 0.02 0.02 0.02 0.02 0.01 0.01 0.01 0.01 0.00 0.00 0.00 0.01 0.01 0.02 0.02 0.02 0.02 0.02 0.02 0.02 0.02 0.02 0.02 0.02 0.02 0.03 0.02 0.03 0.05 0.06
0.05 0.06 0.07 0.08 0.08 0.06 0.05 0.03 0.02 0.02 0.02 0.02 0.02 0.03 0.03 0.03 0.02 0.02 0.01 0.00 0.00 0.00 0.00 0.00 0.00 0.01 0.01 0.02 0.02 0.02 0.02 0.02 0.02 0.02 0.02 0.02 0.02 0.03 0.03 0.03 0.02 0.03 0.04
0.04 0.06 0.06 0.06 0.07 0.07 0.07 0.05 0.03 0.03 0.03 0.03 0.02 0.03 0.02 0.02 0.02 0.01 0.01 0.01 0.01 0.00 0.00 0.00 0.00 0.00 0.00 0.01 0.01 0.01 0.01 0.01 0.01 0.01 0.01 0.01 0.02 0.02 0.02 0.03 0.03 0.03 0.03
0.03 0.04 0.05 0.06 0.06 0.06 0.06 0.06 0.06 0.05 0.04 0.03 0.02 0.02 0.02 0.01 0.01 0.02 0.01 0.01 0.01 0.00 0.00 0.00 0.00 0.00 0.00 0.01 0.01 0.01 0.01 0.01 0.01 0.01 0.01 0.01 0.01 0.01 0.02 0.02 0.03 0.03 0.03
0.03 0.03 0.03 0.03 0.05 0.05 0.05 0.06 0.06 0.06 0.06 0.05 0.03 0.02 0.02 0.02 0.02 0.02 0.02 0.01 0.01 0.01 0.00 0.00 0.00 0.00 0.00 0.00 0.01 0.02 0.02 0.02 0.02 0.01 0.01 0.01 0.01 0.01 0.01 0.02 0.02 0.02 0.02
0.03 0.03 0.03 0.03 0.03 0.03 0.05 0.06 0.07 0.06 0.06 0.05 0.04 0.04 0.03 0.03 0.02 0.02 0.02 0.01 0.01 0.01 0.01 0.00 0.00 0.00 0.00 0.00 0.01 0.01 0.01 0.02 0.02 0.02 0.01 0.01 0.01 0.01 0.01 0.02 0.02 0.03 0.03
0.02 0.02 0.03 0.03 0.03 0.02 0.02 0.03 0.04 0.04 0.05 0.04 0.03 0.03 0.03 0.02 0.02 0.02 0.02 0.01 0.01 0.01 0.01 0.00 0.00 0.00 0.00 0.00 0.00 0.01 0.01 0.02 0.02 0.02 0.02 0.02 0.01 0.01 0.01 0.02 0.03 0.04 0.04
0.02 0.01 0.01 0.02 0.02 0.01 0.01 0.01 0.02 0.02 0.02 0.02 0.02 0.02 0.02 0.02 0.02 0.01 0.01 0.01 0.01 0.01 0.01 0.00 0.00 0.00 0.00 0.00 0.00 0.00 0.01 0.01 0.02 0.02 0.02 0.02 0.02 0.01 0.02 0.02 0.03 0.04 0.04
0.01 0.01 0.01 0.01 0.01 0.01 0.01 0.01 0.01 0.01 0.02 0.02 0.01 0.01 0.01 0.01 0.01 0.01 0.01 0.01 0.01 0.01 0.01 0.01 0.00 0.00 0.00 0.00 0.00 0.00 0.01 0.01 0.01 0.02 0.02 0.02 0.02 0.02 0.02 0.03 0.03 0.03 0.04
0.01 0.01 0.01 0.01 0.01 0.01 0.01 0.01 0.01 0.02 0.02 0.01 0.01 0.01 0.00 0.00 0.00 0.00 0.00 0.00 0.01 0.01 0.01 0.01 0.00 0.00 0.00 0.00 0.00 0.01 0.01 0.01 0.01 0.02 0.02 0.02 0.02 0.02 0.03 0.04 0.04 0.04 0.04
0.01 0.01 0.01 0.01 0.01 0.01 0.01 0.01 0.01 0.01 0.01 0.01 0.01 0.01 0.00 0.00 0.01 0.01 0.01 0.01 0.01 0.01 0.01 0.01 0.00 0.00 0.01 0.01 0.01 0.01 0.01 0.01 0.01 0.01 0.02 0.03 0.02 0.02 0.03 0.04 0.04 0.04 0.04
0.01 0.01 0.01 0.00 0.00 0.01 0.01 0.01 0.01 0.01 0.01 0.01 0.01 0.01 0.01 0.01 0.01 0.01 0.01 0.01 0.01 0.01 0.01 0.01 0.01 0.01 0.01 0.01 0.01 0.01 0.01 0.01 0.01 0.01 0.01 0.02 0.02 0.03 0.03 0.03 0.03 0.03 0.03
0.02 0.01 0.01 0.00 0.00 0.00 0.00 0.01 0.01 0.01 0.01 0.01 0.01 0.01 0.01 0.01 0.01 0.01 0.01 0.01 0.01 0.01 0.01 0.01 0.01 0.01 0.01 0.02 0.02 0.01 0.02 0.02 0.01 0.01 0.00 0.01 0.01 0.02 0.03 0.03 0.03 0.03 0.03
0.01 0.01 0.01 0.01 0.01 0.01 0.01 0.01 0.01 0.01 0.01 0.01 0.01 0.01 0.01 0.01 0.01 0.01 0.01 0.01 0.01 0.01 0.01 0.01 0.01 0.01 0.01 0.01 0.01 0.02 0.02 0.02 0.01 0.01 0.01 0.01 0.01 0.01 0.03 0.04 0.04 0.03 0.03
0.02 0.01 0.01 0.00 0.00 0.01 0.01 0.01 0.01 0.01 0.01 0.01 0.01 0.01 0.01 0.01 0.01 0.01 0.01 0.01 0.01 0.01 0.01 0.01 0.01 0.01 0.01 0.01 0.02 0.02 0.02 0.02 0.01 0.01 0.01 0.01 0.01 0.01 0.02 0.02 0.03 0.03 0.03
0.02 0.01 0.01 0.00 0.00 0.00 0.01 0.01 0.01 0.01 0.01 0.01 0.01 0.01 0.01 0.01 0.01 0.01 0.01 0.01 0.01 0.01 0.01 0.01 0.01 0.01 0.01 0.01 0.01 0.02 0.03 0.03 0.02 0.01 0.01 0.01 0.01 0.01 0.02 0.02 0.02 0.03 0.02
0.01 0.01 0.01 0.01 0.00 0.00 0.01 0.01 0.01 0.01 0.01 0.01 0.01 0.01 0.01 0.01 0.02 0.02 0.01 0.01 0.01 0.01 0.01 0.00 0.01 0.01 0.01 0.01 0.01 0.02 0.03 0.03 0.03 0.02 0.01 0.01 0.01 0.01 0.02 0.03 0.03 0.04 0.03
MSLP
1014.43 1015.01 1015.51 1015.95 1016.35 1016.73 1017.11 1017.49 1017.89 1018.28 1018.66 1019.01 1019.32 1019.60 1019.85 1020.07 1020.27 1020.45 1020.62 1020.78 1020.91 1021.02 1021.10 1021.17 1021.23 1021.28 1021.34 1021.40 1021.46 1021.53 1021.61 1021.67 1021.72 1021.76 1021.77 1021.77 1021.75 1021.70 1021.62 1021.51 1021.38 1021.22 1021.05
1013.97 1014.62 1015.19 1015.72 1016.20 1016.65 1017.10 1017.53 1017.97 1018.39 1018.78 1019.14 1019.46 1019.73 1019.95 1020.14 1020.30 1020.45 1020.58 1020.70 1020.82 1020.92 1021.02 1021.11 1021.19 1021.26 1021.33 1021.39 1021.44 1021.50 1021.54 1021.59 1021.63 1021.67 1021.69 1021.71 1021.72 1021.70 1021.66 1021.58 1021.47 1021.33 1021.16
1013.41 1014.12 1014.79 1015.41 1015.99 1016.55 1017.07 1017.57 1018.05 1018.49 1018.90 1019.26 1019.57 1019.82 1020.02 1020.17 1020.29 1020.39 1020.48 1020.57 1020.66 1020.75 1020.86 1020.96 1021.06 1021.16 1021.24 1021.30 1021.35 1021.39 1021.41 1021.43 1021.46 1021.49 1021.53 1021.57 1021.61 1021.63 1021.63 1021.59 1021.51 1021.40 1021.26
1012.76 1013.53 1014.29 1015.02 1015.71 1016.36 1016.97 1017.53 1018.05 1018.52 1018.94 1019.30 1019.60 1019.83 1020.01 1020.13 1020.21 1020.27 1020.32 1020.37 1020.43 1020.52 1020.62 1020.73 1020.85 1020.96 1021.05 1021.12 1021.17 1021.19 1021.20 1021.20 1021.22 1021.25 1021.29 1021.36 1021.43 1021.49 1021.53 1021.53 1021.49 1021.42 1021.30
1012.05 1012.86 1013.69 1014.51 1015.29 1016.03 1016.72 1017.34 1017.90 1018.40 1018.83 1019.19 1019.49 1019.72 1019.88 1019.99 1020.06 1020.09 1020.11 1020.13 1020.18 1020.24 1020.34 1020.45 1020.58 1020.70 1020.80 1020.87 1020.91 1020.93 1020.92 1020.92 1020.92 1020.95 1021.01 1021.10 1021.20 1021.30 1021.39 1021.43 1021.43 1021.38 1021.28
1011.29 1012.12 1012.99 1013.86 1014.71 1015.52 1016.27 1016.94 1017.54 1018.06 1018.51 1018.90 1019.21 1019.46 1019.64 1019.76 1019.83 1019.86 1019.88 1019.90 1019.92 1019.98 1020.07 1020.18 1020.30 1020.43 1020.53 1020.60 1020.64 1020.65 1020.64 1020.63 1020.63 1020.67 1020.74 1020.85 1020.99 1021.13 1021.25 1021.33 1021.36 1021.32 1021.23
1010.50 1011.31 1012.18 1013.08 1013.96 1014.81 1015.60 1016.31 1016.95 1017.51 1017.99 1018.41 1018.77 1019.06 1019.29 1019.45 1019.56 1019.63 1019.66 1019.69 1019.72 1019.78 1019.86 1019.96 1020.08 1020.20 1020.31 1020.38 1020.41 1020.42 1020.41 1020.40 1020.41 1020.46 1020.56 1020.69 1020.86 1021.03 1021.18 1021.28 1021.31 1021.27 1021.16
1009.68 1010.44 1011.29 1012.18 1013.07 1013.94 1014.75 1015.50 1016.17 1016.77 1017.31 1017.79 1018.21 1018.57 1018.87 1019.10 1019.28 1019.40 1019.48 1019.54 1019.59 1019.66 1019.75 1019.86 1019.98 1020.10 1020.20 1020.27 1020.31 1020.32 1020.31 1020.31 1020.34 1020.40 1020.52 1020.67 1020.86 1021.04 1021.20 1021.30 1021.32 1021.27 1021.13
1008.86 1009.56 1010.36 1011.22 1012.10 1012.96 1013.79 1014.56 1015.28 1015.93 1016.53 1017.08 1017.58 1018.02 1018.41 1018.73 1018.99 1019.19 1019.33 1019.45 1019.55 1019.65 1019.76 1019.89 1020.02 1020.15 1020.26 1020.34 1020.39 1020.40 1020.41 1020.42 1020.45 1020.53 1020.65 1020.82 1021.00 1021.19 1021.33 1021.42 1021.41 1021.31 1021.13
1008.03 1008.69 1009.45 1010.27 1011.12 1011.98 1012.82 1013.61 1014.37 1015.07 1015.73 1016.35 1016.93 1017.46 1017.93 1018.35 1018.69 1018.97 1019.20 1019.38 1019.55 1019.71 1019.87 1020.04 1020.21 1020.37 1020.50 1020.60 1020.66 1020.69 1020.71 1020.72 1020.76 1020.84 1020.96 1021.12 1021.29 1021.45 1021.56 1021.61 1021.56 1021.41 1021.18
1007.22 1007.86 1008.58 1009.38 1010.21 1011.07 1011.91 1012.73 1013.52 1014.27 1014.99 1015.67 1016.31 1016.90 1017.44 1017.92 1018.35 1018.70 1019.01 1019.29 1019.54 1019.78 1020.02 1020.27 1020.50 1020.71 1020.88 1021.02 1021.10 1021.15 1021.17 1021.19 1021.23 1021.29 1021.39 1021.51 1021.65 1021.77 1021.84 1021.83 1021.73 1021.53 1021.24
1006.42 1007.06 1007.78 1008.57 1009.41 1010.26 1011.12 1011.97 1012.79 1013.57 1014.32 1015.03 1015.71 1016.33 1016.91 1017.44 1017.91 1018.34 1018.73 1019.09 1019.45 1019.80 1020.15 1020.50 1020.82 1021.11 1021.36 1021.54 1021.66 1021.72 1021.75 1021.75 1021.77 1021.80 1021.86 1021.94 1022.02 1022.08 1022.09 1022.03 1021.87 1021.63 1021.30
1005.59 1006.28 1007.03 1007.84 1008.70 1009.57 1010.45 1011.31 1012.15 1012.95 1013.72 1014.44 1015.11 1015.74 1016.32 1016.86 1017.36 1017.83 1018.30 1018.76 1019.23 1019.71 1020.19 1020.67 1021.12 1021.52 1021.84 1022.08 1022.24 1022.32 1022.35 1022.33 1022.31 1022.30 1022.30 1022.31 1022.33 1022.33 1022.27 1022.15 1021.95 1021.67 1021.32
1004.73 1005.49 1006.30 1007.15 1008.03 1008.94 1009.84 1010.72 1011.58 1012.39 1013.14 1013.84 1014.49 1015.09 1015.65 1016.17 1016.68 1017.19 1017.72 1018.28 1018.87 1019.49 1020.12 1020.75 1021.34 1021.85 1022.27 1022.59 1022.78 1022.88 1022.89 1022.85 1022.78 1022.71 1022.64 1022.59 1022.54 1022.47 1022.36 1022.19 1021.96 1021.65 1021.29
1003.81 1004.65 1005.53 1006.43 1007.36 1008.30 1009.23 1010.14 1011.00 1011.81 1012.55 1013.23 1013.84 1014.40 1014.91 1015.41 1015.91 1016.45 1017.03 1017.68 1018.39 1019.16 1019.95 1020.73 1021.45 1022.09 1022.61 1022.99 1023.22 1023.33 1023.33 1023.25 1023.14 1023.00 1022.87 1022.75 1022.63 1022.50 1022.35 1022.14 1021.88 1021.57 1021.21
1002.82 1003.73 1004.67 1005.63 1006.60 1007.58 1008.54 1009.48 1010.37 1011.19 1011.93 1012.59 1013.17 1013.68 1014.16 1014.63 1015.13 1015.68 1016.32 1017.05 1017.88 1018.77 1019.70 1020.63 1021.48 1022.23 1022.84 1023.28 1023.55 1023.66 1023.64 1023.54 1023.37 1023.19 1023.00 1022.82 1022.65 1022.47 1022.27 1022.04 1021.77 1021.46 1021.11
1001.75 1002.73 1003.71 1004.71 1005.72 1006.74 1007.75 1008.73 1009.66 1010.51 1011.27 1011.94 1012.52 1013.02 1013.48 1013.94 1014.44 1015.01 1015.70 1016.50 1017.42 1018.42 1019.47 1020.50 1021.47 1022.31 1022.98 1023.46 1023.76 1023.88 1023.85 1023.72 1023.52 1023.30 1023.07 1022.85 1022.63 1022.42 1022.19 1021.94 1021.66 1021.34 1021.00
1000.66 1001.66 1002.66 1003.68 1004.72 1005.78 1006.84 1007.89 1008.88 1009.80 1010.62 1011.34 1011.95 1012.47 1012.95 1013.42 1013.94 1014.54 1015.26 1016.11 1017.10 1018.18 1019.30 1020.42 1021.46 1022.35 1023.07 1023.59 1023.90 1024.03 1024.00 1023.86 1023.65 1023.40 1023.15 1022.90 1022.66 1022.41 1022.16 1021.88 1021.59 1021.26 1020.92
999.58 1000.57 1001.57 1002.60 1003.67 1004.77 1005.89 1007.01 1008.10 1009.11 1010.03 1010.84 1011.53 1012.12 1012.65 1013.15 1013.70 1014.33 1015.08 1015.97 1016.99 1018.11 1019.28 1020.43 1021.50 1022.43 1023.17 1023.71 1024.03 1024.16 1024.14 1024.01 1023.80 1023.55 1023.30 1023.04 1022.77 1022.51 1022.22 1021.92 1021.59 1021.24 1020.87
998.55 999.52 1000.50 1001.53 1002.62 1003.76 1004.96 1006.17 1007.37 1008.52 1009.57 1010.50 1011.30 1011.99 1012.59 1013.16 1013.75 1014.41 1015.18 1016.09 1017.11 1018.24 1019.41 1020.56 1021.64 1022.56 1023.31 1023.85 1024.18 1024.33 1024.33 1024.22 1024.03 1023.80 1023.55 1023.29 1023.02 1022.73 1022.41 1022.06 1021.68 1021.28 1020.87
997.63 998.56 999.54 1000.56 1001.67 1002.87 1004.14 1005.46 1006.78 1008.07 1009.27 1010.35 1011.28 1012.09 1012.79 1013.43 1014.07 1014.76 1015.54 1016.44 1017.45 1018.55 1019.69 1020.82 1021.87 1022.78 1023.51 1024.05 1024.39 1024.56 1024.59 1024.51 1024.36 1024.16 1023.93 1023.68 1023.39 1023.07 1022.71 1022.31 1021.86 1021.39 1020.91
996.83 997.76 998.73 999.77 1000.91 1002.15 1003.50 1004.92 1006.38 1007.80 1009.15 1010.38 1011.45 1012.38 1013.19 1013.91 1014.59 1015.31 1016.09 1016.97 1017.95 1019.01 1020.10 1021.18 1022.19 1023.06 1023.78 1024.31 1024.67 1024.86 1024.93 1024.89 1024.78 1024.62 1024.41 1024.17 1023.87 1023.52 1023.11 1022.64 1022.12 1021.57 1021.00
996.19 997.15 998.15 999.21 1000.39 1001.69 1003.11 1004.62 1006.18 1007.73 1009.21 1010.56 1011.77 1012.81 1013.71 1014.50 1015.24 1015.97 1016.75 1017.61 1018.55 1019.55 1020.59 1021.62 1022.57 1023.41 1024.10 1024.63 1025.00 1025.22 1025.31 1025.32 1025.25 1025.12 1024.94 1024.71 1024.40 1024.02 1023.56 1023.02 1022.42 1021.79 1021.15
995.74 996.75 997.80 998.92 1000.14 1001.49 1002.96 1004.55 1006.19 1007.83 1009.41 1010.86 1012.17 1013.31 1014.29 1015.14 1015.92 1016.68 1017.46 1018.29 1019.19 1020.15 1021.13 1022.10 1023.00 1023.80 1024.47 1024.99 1025.36 1025.60 1025.73 1025.76 1025.73 1025.63 1025.47 1025.24 1024.92 1024.51 1024.01 1023.42 1022.76 1022.05 1021.34
995.47 996.59 997.71 998.89 1000.16 1001.56 1003.07 1004.70 1006.38 1008.08 1009.71 1011.24 1012.61 1013.82 1014.86 1015.77 1016.59 1017.37 1018.15 1018.97 1019.84 1020.76 1021.69 1022.61 1023.47 1024.23 1024.86 1025.36 1025.73 1025.97 1026.11 1026.17 1026.15 1026.07 1025.93 1025.70 1025.38 1024.95 1024.43 1023.80 1023.10 1022.34 1021.57
995.41 996.65 997.87 999.12 1000.44 1001.87 1003.41 1005.04 1006.74 1008.45 1010.10 1011.66 1013.07 1014.32 1015.41 1016.36 1017.22 1018.02 1018.82 1019.63 1020.49 1021.37 1022.27 1023.14 1023.95 1024.67 1025.27 1025.74 1026.09 1026.32 1026.45 1026.51 1026.50 1026.42 1026.27 1026.05 1025.73 1025.30 1024.77 1024.13 1023.41 1022.63 1021.83
Thickness
5624 5625 5625 5625 5626 5626 5626 5627 5627 5628 5628 5629 5630 5630 5630 5631 5631 5632 5632 5633 5633 5634 5634 5634 5635 5635 5635 5635 5634 5635 5635 5635 5635 5635 5635 5635 5636 5636 5637 5637 5637 5638 5638
5617 5617 5617 5617 5617 5618 5618 5618 5619 5619 5619 5620 5621 5621 5622 5622 5623 5623 5624 5624 5624 5625 5625 5625 5626 5626 5626 5627 5627 5627 5627 5627 5627 5628 5628 5628 5628 5629 5629 5630 5630 5630 5630
5609 5610 5609 5608 5609 5609 5609 5609 5609 5610 5610 5611 5611 5612 5613 5613 5614 5614 5614 5615 5615 5615 5616 5616 5617 5617 5617 5618 5618 5618 5619 5619 5620 5620 5620 5620 5621 5621 5622 5622 5622 5622 5623
5601 5601 5601 5601 5600 5600 5600 5600 5600 5599 5600 5600 5602 5602 5603 5604 5605 5605 5605 5605 5605 5605 5606 5606 5607 5607 5608 5609 5609 5609 5610 5610 5611 5611 5612 5612 5613 5613 5613 5613 5614 5614 5614
5592 5593 5592 5592 5592 5592 5591 5591 5590 5590 5589 5590 5591 5592 5594 5594 5595 5595 5595 5596 5596 5595 5595 5596 5596 5597 5598 5598 5599 5599 5600 5601 5601 5602 5602 5603 5603 5603 5604 5604 5605 5605 5606
5584 5584 5584 5584 5583 5583 5582 5581 5580 5580 5580 5580 5582 5582 5583 5585 5586 5586 5586 5586 5585 5585 5585 5585 5586 5586 5587 5588 5588 5589 5590 5591 5592 5592 5593 5593 5594 5594 5594 5595 5595 5596 5597
5575 5575 5575 5574 5574 5574 5574 5573 5572 5570 5569 5570 5569 5570 5572 5574 5575 5576 5576 5576 5575 5575 5575 5575 5575 5575 5576 5576 5577 5578 5579 5581 5581 5582 5583 5583 5584 5584 5585 5585 5586 5586 5587
5566 5566 5566 5566 5566 5565 5565 5564 5563 5561 5559 5559 5559 5558 5558 5561 5563 5566 5565 5565 5564 5564 5564 5564 5564 5564 5564 5565 5566 5566 5567 5569 5571 5571 5572 5573 5574 5574 5574 5575 5575 5576 5576
5558 5559 5558 5557 5557 5557 5556 5555 5554 5553 5550 5549 5549 5548 5546 5548 5549 5552 5554 5554 5553 5553 5553 5553 5553 5553 5554 5554 5554 5555 5556 5557 5559 5560 5561 5562 5562 5563 5564 5564 5564 5565 5565
5549 5550 5550 5549 5549 5548 5547 5546 5545 5544 5542 5539 5538 5538 5537 5537 5536 5538 5540 5540 5541 5541 5541 5541 5542 5542 5543 5543 5543 5544 5545 5545 5547 5548 5549 5550 5550 5551 5552 5553 5553 5553 5554
5541 5541 5541 5540 5540 5539 5539 5537 5535 5534 5533 5530 5528 5526 5526 5525 5525 5525 5527 5527 5527 5528 5529 5529 5530 5531 5531 5531 5532 5533 5533 5534 5535 5536 5537 5538 5538 5539 5539 5540 5540 5541 5542
5531 5531 5531 5531 5530 5529 5528 5527 5525 5524 5522 5520 5518 5517 5516 5515 5515 5514 5515 5514 5514 5515 5516 5518 5518 5519 5519 5519 5520 5521 5521 5522 5523 5523 5524 5525 5525 5526 5526 5527 5528 5528 5529
5522 5522 5522 5521 5520 5520 5518 5516 5515 5514 5512 5510 5508 5507 5507 5506 5505 5505 5504 5503 5502 5502 5503 5505 5506 5507 5507 5507 5507 5508 5509 5509 5510 5511 5512 5512 5513 5513 5513 5514 5515 5516 5516
5513 5513 5512 5511 5511 5510 5508 5507 5505 5503 5502 5500 5499 5497 5496 5496 5495 5495 5494 5492 5490 5490 5491 5492 5493 5494 5494 5494 5494 5495 5496 5497 5498 5499 5499 5500 5500 5501 5501 5502 5503 5503 5504
5504 5503 5502 5501 5501 5499 5498 5496 5494 5492 5491 5489 5488 5487 5486 5485 5485 5484 5483 5482 5480 5479 5480 5480 5479 5481 5481 5481 5482 5483 5483 5484 5486 5487 5487 5488 5488 5489 5489 5490 5490 5491 5492
5494 5493 5493 5491 5490 5489 5487 5485 5483 5481 5480 5478 5477 5476 5475 5475 5474 5473 5471 5470 5469 5468 5467 5469 5467 5467 5468 5469 5469 5470 5471 5472 5473 5475 5476 5477 5477 5477 5477 5478 5478 5479 5479
5484 5484 5482 5481 5479 5478 5476 5474 5472 5470 5469 5467 5466 5465 5465 5465 5463 5461 5460 5459 5457 5456 5456 5456 5455 5456 5456 5457 5458 5458 5459 5461 5462 5463 5465 5465 5466 5466 5466 5466 5466 5466 5467
5474 5473 5471 5470 5468 5467 5465 5463 5461 5459 5457 5456 5455 5454 5455 5454 5452 5451 5449 5448 5446 5445 5445 5445 5445 5444 5444 5445 5446 5446 5448 5449 5450 5452 5453 5454 5454 5454 5454 5454 5454 5454 5455
5464 5462 5460 5458 5457 5456 5454 5451 5449 5447 5446 5445 5444 5444 5444 5443 5442 5441 5439 5438 5437 5436 5435 5434 5434 5433 5433 5434 5434 5435 5436 5438 5439 5441 5442 5442 5443 5443 5443 5443 5442 5442 5443
5453 5452 5450 5448 5447 5446 5443 5441 5438 5437 5435 5434 5433 5433 5433 5432 5432 5431 5430 5428 5427 5426 5425 5424 5423 5423 5423 5423 5423 5424 5425 5426 5428 5429 5430 5431 5431 5431 5431 5431 5431 5431 5431
5444 5442 5440 5438 5437 5435 5433 5431 5429 5427 5425 5424 5423 5423 5423 5423 5423 5422 5421 5419 5418 5416 5415 5414 5414 5413 5413 5412 5412 5413 5414 5415 5417 5418 5418 5420 5420 5420 5419 5419 5419 5420 5420
5433 5432 5430 5428 5426 5425 5424 5422 5420 5417 5415 5414 5414 5413 5413 5413 5414 5413 5413 5412 5410 5408 5407 5406 5405 5405 5404 5403 5403 5403 5403 5404 5406 5407 5407 5408 5408 5408 5409 5409 5409 5409 5409
5423 5422 5420 5418 5416 5415 5414 5412 5411 5408 5407 5406 5405 5405 5405 5405 5404 5403 5403 5403 5402 5401 5400 5399 5397 5397 5397 5397 5395 5395 5394 5394 5395 5396 5395 5398 5398 5398 5399 5399 5399 5399 5399
5414 5412 5411 5409 5407 5406 5405 5404 5402 5400 5398 5398 5397 5396 5395 5395 5395 5394 5393 5392 5392 5391 5391 5391 5391 5391 5390 5389 5388 5387 5386 5386 5387 5386 5385 5386 5388 5388 5390 5390 5389 5389 5389
5405 5403 5402 5400 5398 5396 5396 5395 5394 5391 5390 5389 5389 5388 5387 5387 5387 5387 5385 5383 5383 5383 5383 5383 5383 5383 5383 5382 5381 5379 5377 5377 5378 5378 5377 5376 5378 5378 5380 5381 5381 5380 5380
5396 5395 5393 5391 5389 5388 5388 5387 5386 5384 5382 5382 5381 5380 5380 5380 5380 5379 5377 5376 5375 5375 5374 5374 5373 5373 5373 5373 5373 5371 5370 5368 5369 5370 5369 5368 5368 5367 5370 5372 5372 5371 5371